Location: Banios
(43.0451°N, 0.2335°E)
Time: 11:36:55
(UTC+00:00)

A-11 Canister half - Pass Details

Date: 16 May 2021
Orbit: 1513 x 1687 km, 47.2° (Epoch: 23 June)

Event Time Altitude Azimuth Distance (km) Brightness Sun altitude
Rises 14:16:02 0° 240° (WSW) 4,691 12.1 52.1°
Reaches altitude 10° 14:19:05 10° 240° (WSW) 3,694 11.9 51.6°
Maximum altitude 14:28:23 84° 154° (SSE) 1,525 10.0 50.1°
Drops below altitude 10° 14:37:39 10° 68° (ENE) 3,684 10.7 48.5°
Sets 14:40:41 0° 68° (ENE) 4,677 11.1 48.0°
